Terminal Aerodrome Forecast
Issued by NWS

Home | Current Version | Previous Version | Text Only | Print | Product List | Glossary On
Versions: 1 2 3 4 5 6 7 8 9 10 11 12 13 14 15 16 17 18 19 20 21 22 23 24 25 26 27 28 29 30 31 32 33 34 35 36 37 38 39 40 41 42 43 44 45 46 47 48 49 50
000
FTUS46 KPQR 011131 CCA
TAFONP
TAF COR
KONP 011131Z 0112/0212 09003KT 5SM BR FEW002 SCT015
      TEMPO 0113/0115 1SM BR BKN002
     FM011600 36006KT 5SM BR FEW004 SCT015
     FM011800 34007KT P6SM SKC
     FM020200 36005KT P6SM SCT012 BKN020=

USA.gov is the U.S. government's official web portal to all federal, state and local government web resources and services.